Location: *
(58.4167°N, 22.5000°E)
Time: 12:29:46
(UTC+00:00)

Cosmos 1238 Rocket - Pass Details

Date: 22 September 2019
Orbit: 376 x 1032 km, 82.9° (Epoch: 17 October)

Event Time Altitude Azimuth Distance (km) Brightness Sun altitude
Rises 21:50:07 0° 348° (NNW) 2,987 7.7 -31.1°
Reaches altitude 10° 21:52:12 10° 350° (N) 2,168 6.7 -31.1°
Enters shadow 21:55:52 52° 6° (N) 959 4.2 -31.2°
